Time,TemperatureF,DewpointF,PressureIn,WindDirection,WindDirectionDegrees,WindSpeedMPH,WindSpeedGustMPH,Humidity,HourlyPrecipIn,Conditions,Clouds,dailyrainin,SoftwareType,DateUTC
2013-05-24 00:00:00,48.4,32.0,29.26,NW,324,0.0,0.0,53,0.00,,---,0.00,VWS V14.01,2013-05-24 04:00:00,
2013-05-24 00:01:00,48.4,32.0,29.26,NW,324,0.0,0.0,53,0.00,,---,0.00,VWS V14.01,2013-05-24 04:01:00,
2013-05-24 00:02:00,48.6,32.2,29.26,NW,324,0.0,0.0,53,0.00,,---,0.00,VWS V14.01,2013-05-24 04:02:00,
2013-05-24 00:03:00,48.6,32.2,29.26,NW,324,0.0,0.0,53,0.00,,---,0.00,VWS V14.01,2013-05-24 04:03:00,
2013-05-24 00:04:00,48.6,32.2,29.26,NW,324,0.0,0.0,53,0.00,,---,0.00,VWS V14.01,2013-05-24 04:04:00,
2013-05-24 00:05:00,48.6,32.2,29.26,NW,324,0.0,0.0,53,0.00,,---,0.00,VWS V14.01,2013-05-24 04:05:00,
2013-05-24 00:06:00,48.7,32.4,29.26,NW,324,0.0,0.0,53,0.00,,---,0.00,VWS V14.01,2013-05-24 04:06:00,
2013-05-24 00:07:00,48.7,32.4,29.26,NW,324,0.0,0.0,53,0.00,,---,0.00,VWS V14.01,2013-05-24 04:07:00,
2013-05-24 00:08:00,48.7,32.4,29.26,NW,324,0.0,0.0,53,0.00,,---,0.00,VWS V14.01,2013-05-24 04:08:00,
2013-05-24 00:09:00,48.9,32.6,29.26,NW,324,0.0,0.0,53,0.00,,---,0.00,VWS V14.01,2013-05-24 04:09:00,
2013-05-24 00:10:00,48.9,32.6,29.26,NW,324,0.0,0.0,53,0.00,,---,0.00,VWS V14.01,2013-05-24 04:10:00,
2013-05-24 00:11:00,49.1,32.7,29.26,NW,324,0.0,0.0,53,0.00,,---,0.00,VWS V14.01,2013-05-24 04:11:00,
2013-05-24 00:12:00,49.1,32.7,29.26,NW,324,0.0,0.0,53,0.00,,---,0.00,VWS V14.01,2013-05-24 04:12:00,
2013-05-24 00:13:00,49.1,32.2,29.26,NW,324,0.0,0.0,52,0.00,,---,0.00,VWS V14.01,2013-05-24 04:13:00,
2013-05-24 00:14:00,49.1,32.2,29.26,NW,324,0.0,0.0,52,0.00,,---,0.00,VWS V14.01,2013-05-24 04:14:00,
2013-05-24 00:15:00,49.1,32.2,29.26,NW,324,0.0,0.0,52,0.00,,---,0.00,VWS V14.01,2013-05-24 04:15:00,
2013-05-24 00:16:00,49.1,31.8,29.26,NW,324,0.0,0.0,51,0.00,,---,0.00,VWS V14.01,2013-05-24 04:16:00,
2013-05-24 00:17:00,49.1,31.8,29.26,NW,324,0.0,0.0,51,0.00,,---,0.00,VWS V14.01,2013-05-24 04:17:00,
2013-05-24 00:18:00,49.1,31.8,29.26,NW,324,0.0,0.0,51,0.00,,---,0.00,VWS V14.01,2013-05-24 04:18:00,
2013-05-24 00:19:00,49.1,31.8,29.26,NW,324,0.0,0.0,51,0.00,,---,0.00,VWS V14.01,2013-05-24 04:19:00,
2013-05-24 00:20:00,49.1,31.3,29.26,NW,324,0.0,0.0,50,0.00,,---,0.00,VWS V14.01,2013-05-24 04:20:00,
2013-05-24 00:21:00,49.1,31.3,29.26,NW,324,0.0,0.0,50,0.00,,---,0.00,VWS V14.01,2013-05-24 04:21:00,
2013-05-24 00:22:00,49.1,31.3,29.26,NW,324,0.0,0.0,50,0.00,,---,0.00,VWS V14.01,2013-05-24 04:22:00,
2013-05-24 00:23:00,49.1,31.3,29.26,NW,324,0.0,0.0,50,0.00,,---,0.00,VWS V14.01,2013-05-24 04:23:00,
2013-05-24 00:24:00,49.1,31.3,29.26,NW,324,0.0,0.0,50,0.00,,---,0.00,VWS V14.01,2013-05-24 04:24:00,
2013-05-24 00:25:00,49.1,31.3,29.26,NW,324,0.0,0.0,50,0.00,,---,0.00,VWS V14.01,2013-05-24 04:25:00,
2013-05-24 00:26:00,49.1,30.8,29.26,NW,324,0.0,0.0,49,0.00,,---,0.00,VWS V14.01,2013-05-24 04:26:00,
2013-05-24 00:27:00,49.1,30.8,29.26,NW,324,0.0,0.0,49,0.00,,---,0.00,VWS V14.01,2013-05-24 04:27:00,
2013-05-24 00:28:00,49.1,30.8,29.26,NW,324,0.0,0.0,49,0.00,,---,0.00,VWS V14.01,2013-05-24 04:28:00,
2013-05-24 00:29:00,49.1,30.8,29.26,NW,324,0.0,0.0,49,0.00,,---,0.00,VWS V14.01,2013-05-24 04:29:00,
2013-05-24 00:30:00,49.1,30.8,29.26,NW,324,0.0,0.0,49,0.00,,---,0.00,VWS V14.01,2013-05-24 04:30:00,
2013-05-24 00:31:00,49.3,30.4,29.26,NW,324,0.0,0.0,48,0.00,,---,0.00,VWS V14.01,2013-05-24 04:31:00,
2013-05-24 00:32:00,49.3,30.4,29.26,NW,324,0.0,0.0,48,0.00,,---,0.00,VWS V14.01,2013-05-24 04:32:00,
2013-05-24 00:33:00,49.5,30.1,29.26,NW,324,0.0,4.0,47,0.00,,---,0.00,VWS V14.01,2013-05-24 04:33:00,
2013-05-24 00:34:00,49.5,30.1,29.26,NW,324,0.0,0.0,47,0.00,,---,0.00,VWS V14.01,2013-05-24 04:34:00,
2013-05-24 00:35:00,49.6,30.2,29.26,NW,324,0.0,0.0,47,0.00,,---,0.00,VWS V14.01,2013-05-24 04:35:00,
2013-05-24 00:36:00,49.6,29.7,29.26,NW,324,0.0,0.0,46,0.00,,---,0.00,VWS V14.01,2013-05-24 04:36:00,
2013-05-24 00:37:00,49.8,29.9,29.26,NW,324,0.0,0.0,46,0.00,,---,0.00,VWS V14.01,2013-05-24 04:37:00,
2013-05-24 00:38:00,49.8,29.9,29.26,NW,324,0.0,0.0,46,0.00,,---,0.00,VWS V14.01,2013-05-24 04:38:00,
2013-05-24 00:39:00,49.8,29.9,29.26,NW,324,0.0,0.0,46,0.00,,---,0.00,VWS V14.01,2013-05-24 04:39:00,
2013-05-24 00:40:00,50.0,30.0,29.26,NW,324,0.0,0.0,46,0.00,,---,0.00,VWS V14.01,2013-05-24 04:40:00,
2013-05-24 00:41:00,50.0,30.0,29.26,NW,324,0.0,0.0,46,0.00,,---,0.00,VWS V14.01,2013-05-24 04:41:00,
2013-05-24 00:42:00,50.0,29.5,29.26,NW,324,0.0,0.0,45,0.00,,---,0.00,VWS V14.01,2013-05-24 04:42:00,
2013-05-24 00:43:00,50.0,29.5,29.26,NW,324,0.0,0.0,45,0.00,,---,0.00,VWS V14.01,2013-05-24 04:43:00,
2013-05-24 00:44:00,50.0,29.5,29.26,NW,324,0.0,0.0,45,0.00,,---,0.00,VWS V14.01,2013-05-24 04:44:00,
2013-05-24 00:45:00,50.0,29.5,29.26,NW,324,0.0,0.0,45,0.00,,---,0.00,VWS V14.01,2013-05-24 04:45:00,
2013-05-24 00:46:00,49.8,29.4,29.26,NW,324,0.0,0.0,45,0.00,,---,0.00,VWS V14.01,2013-05-24 04:46:00,
2013-05-24 00:47:00,49.8,29.4,29.26,NW,324,0.0,0.0,45,0.00,,---,0.00,VWS V14.01,2013-05-24 04:47:00,
2013-05-24 00:48:00,49.8,29.4,29.26,NW,324,0.0,0.0,45,0.00,,---,0.00,VWS V14.01,2013-05-24 04:48:00,
2013-05-24 00:49:00,49.8,29.9,29.26,NW,324,0.0,0.0,46,0.00,,---,0.00,VWS V14.01,2013-05-24 04:49:00,
2013-05-24 00:50:00,49.6,29.7,29.26,NW,324,0.0,0.0,46,0.00,,---,0.00,VWS V14.01,2013-05-24 04:50:00,
2013-05-24 00:51:00,49.6,29.7,29.26,NW,324,0.0,0.0,46,0.00,,---,0.00,VWS V14.01,2013-05-24 04:51:00,
2013-05-24 00:52:00,49.6,29.7,29.26,NW,324,0.0,0.0,46,0.00,,---,0.00,VWS V14.01,2013-05-24 04:52:00,
2013-05-24 00:53:00,49.6,29.7,29.26,NW,324,0.0,0.0,46,0.00,,---,0.00,VWS V14.01,2013-05-24 04:53:00,
2013-05-24 00:54:00,49.5,29.6,29.26,NW,324,0.0,0.0,46,0.00,,---,0.00,VWS V14.01,2013-05-24 04:54:00,
2013-05-24 00:55:00,49.5,29.6,29.26,NW,324,0.0,0.0,46,0.00,,---,0.00,VWS V14.01,2013-05-24 04:55:00,
2013-05-24 00:56:00,49.3,29.4,29.26,NW,324,0.0,0.0,46,0.00,,---,0.00,VWS V14.01,2013-05-24 04:56:00,
2013-05-24 00:57:00,49.3,29.4,29.26,NW,324,0.0,0.0,46,0.00,,---,0.00,VWS V14.01,2013-05-24 04:57:00,
2013-05-24 00:58:00,49.3,29.4,29.26,NW,324,0.0,0.0,46,0.00,,---,0.00,VWS V14.01,2013-05-24 04:58:00,
2013-05-24 00:59:00,49.3,29.4,29.26,NW,324,0.0,0.0,46,0.00,,---,0.00,VWS V14.01,2013-05-24 04:59:00,
2013-05-24 01:00:00,49.1,29.2,29.26,NW,324,0.0,0.0,46,0.00,,---,0.00,VWS V14.01,2013-05-24 05:00:00,
2013-05-24 01:01:00,49.1,29.2,29.26,NW,324,0.0,0.0,46,0.00,,---,0.00,VWS V14.01,2013-05-24 05:01:00,
2013-05-24 01:02:00,49.1,29.2,29.26,NW,324,0.0,0.0,46,0.00,,---,0.00,VWS V14.01,2013-05-24 05:02:00,
2013-05-24 01:03:00,49.1,29.2,29.26,NW,324,0.0,0.0,46,0.00,,---,0.00,VWS V14.01,2013-05-24 05:03:00,
2013-05-24 01:04:00,49.1,29.8,29.26,NW,324,0.0,0.0,47,0.00,,---,0.00,VWS V14.01,2013-05-24 05:04:00,
2013-05-24 01:05:00,48.9,29.6,29.26,NW,324,0.0,0.0,47,0.00,,---,0.00,VWS V14.01,2013-05-24 05:05:00,
2013-05-24 01:06:00,48.9,29.6,29.26,NW,324,0.0,0.0,47,0.00,,---,0.00,VWS V14.01,2013-05-24 05:06:00,
2013-05-24 01:07:00,48.9,29.6,29.26,NW,324,0.0,0.0,47,0.00,,---,0.00,VWS V14.01,2013-05-24 05:07:00,
2013-05-24 01:08:00,48.9,29.6,29.26,NW,324,0.0,0.0,47,0.00,,---,0.00,VWS V14.01,2013-05-24 05:08:00,
2013-05-24 01:09:00,48.9,29.6,29.26,NW,324,0.0,0.0,47,0.00,,---,0.00,VWS V14.01,2013-05-24 05:09:00,
2013-05-24 01:10:00,48.7,29.4,29.26,NW,324,0.0,0.0,47,0.00,,---,0.00,VWS V14.01,2013-05-24 05:10:00,
2013-05-24 01:11:00,48.7,29.9,29.26,NW,324,0.0,0.0,48,0.00,,---,0.00,VWS V14.01,2013-05-24 05:11:00,
2013-05-24 01:12:00,48.7,29.9,29.26,NW,324,0.0,0.0,48,0.00,,---,0.00,VWS V14.01,2013-05-24 05:12:00,
2013-05-24 01:13:00,48.7,29.9,29.26,NW,324,0.0,0.0,48,0.00,,---,0.00,VWS V14.01,2013-05-24 05:13:00,
2013-05-24 01:14:00,48.7,29.9,29.26,NW,324,0.0,2.7,48,0.00,,---,0.00,VWS V14.01,2013-05-24 05:14:00,
2013-05-24 01:15:00,48.7,29.9,29.26,NW,324,0.0,0.0,48,0.00,,---,0.00,VWS V14.01,2013-05-24 05:15:00,
2013-05-24 01:16:00,48.7,29.9,29.26,NW,324,0.0,0.0,48,0.00,,---,0.00,VWS V14.01,2013-05-24 05:16:00,
2013-05-24 01:17:00,48.7,29.9,29.26,NW,324,0.0,0.0,48,0.00,,---,0.00,VWS V14.01,2013-05-24 05:17:00,
2013-05-24 01:18:00,48.7,29.9,29.26,NW,324,0.0,0.0,48,0.00,,---,0.00,VWS V14.01,2013-05-24 05:18:00,
2013-05-24 01:19:00,48.7,29.9,29.26,NW,324,0.0,0.0,48,0.00,,---,0.00,VWS V14.01,2013-05-24 05:19:00,
2013-05-24 01:20:00,48.7,29.9,29.26,NW,324,0.0,0.0,48,0.00,,---,0.00,VWS V14.01,2013-05-24 05:20:00,
2013-05-24 01:21:00,48.6,29.8,29.26,NW,324,0.0,0.0,48,0.00,,---,0.00,VWS V14.01,2013-05-24 05:21:00,
2013-05-24 01:22:00,48.6,29.8,29.26,NW,324,0.0,0.0,48,0.00,,---,0.00,VWS V14.01,2013-05-24 05:22:00,
2013-05-24 01:23:00,48.6,29.8,29.26,NW,324,0.0,0.0,48,0.00,,---,0.00,VWS V14.01,2013-05-24 05:23:00,
2013-05-24 01:24:00,48.6,29.8,29.26,NW,324,0.0,0.0,48,0.00,,---,0.00,VWS V14.01,2013-05-24 05:24:00,
2013-05-24 01:25:00,48.4,29.6,29.26,NW,324,0.0,0.0,48,0.00,,---,0.00,VWS V14.01,2013-05-24 05:25:00,
2013-05-24 01:26:00,48.4,29.6,29.26,NW,324,0.0,4.0,48,0.00,,---,0.00,VWS V14.01,2013-05-24 05:26:00,
2013-05-24 01:27:00,48.4,30.1,29.26,NW,324,0.0,0.0,49,0.00,,---,0.00,VWS V14.01,2013-05-24 05:27:00,
2013-05-24 01:28:00,50.4,46.0,29.09,NNW,331,3.6,4.5,85,0.00,,---,0.00,VWS V14.01,2013-05-24 05:28:00,
2013-05-24 01:29:00,48.4,30.1,29.26,NW,324,0.0,0.0,49,0.00,,---,0.00,VWS V14.01,2013-05-24 05:29:00,
2013-05-24 01:30:00,48.4,30.1,29.26,NW,324,0.0,0.0,49,0.00,,---,0.00,VWS V14.01,2013-05-24 05:30:00,
2013-05-24 01:31:00,48.4,30.1,29.26,NW,324,0.0,0.0,49,0.00,,---,0.00,VWS V14.01,2013-05-24 05:31:00,
2013-05-24 01:32:00,48.4,30.1,29.26,NW,324,0.0,0.0,49,0.00,,---,0.00,VWS V14.01,2013-05-24 05:32:00,
2013-05-24 01:33:00,48.4,30.1,29.26,NW,324,0.0,0.0,49,0.00,,---,0.00,VWS V14.01,2013-05-24 05:33:00,
2013-05-24 01:35:00,48.2,30.0,29.26,NW,324,0.0,0.0,49,0.00,,---,0.00,VWS V14.01,2013-05-24 05:35:00,
2013-05-24 01:36:00,48.2,30.0,29.26,NW,324,0.0,0.0,49,0.00,,---,0.00,VWS V14.01,2013-05-24 05:36:00,
2013-05-24 01:37:00,50.4,45.7,29.12,NW,315,0.0,4.9,84,0.00,,---,0.00,VWS V14.01,2013-05-24 05:37:00,
2013-05-24 01:39:00,48.2,30.5,29.26,NW,324,0.0,0.0,50,0.00,,---,0.00,VWS V14.01,2013-05-24 05:39:00,
2013-05-24 01:40:00,48.2,30.5,29.26,NW,324,0.0,0.0,50,0.00,,---,0.00,VWS V14.01,2013-05-24 05:40:00,
2013-05-24 01:42:00,48.2,30.5,29.26,NW,324,0.0,0.0,50,0.00,,---,0.00,VWS V14.01,2013-05-24 05:42:00,
2013-05-24 01:43:00,48.2,30.5,29.26,NW,324,0.0,0.0,50,0.00,,---,0.00,VWS V14.01,2013-05-24 05:43:00,
2013-05-24 01:44:00,50.4,45.4,29.12,North,351,4.9,4.9,83,0.00,,---,0.00,VWS V14.01,2013-05-24 05:44:00,
2013-05-24 01:47:00,48.0,30.3,29.26,NW,324,0.0,0.0,50,0.00,,---,0.00,VWS V14.01,2013-05-24 05:47:00,
2013-05-24 01:48:00,48.0,30.3,29.26,NW,324,0.0,0.0,50,0.00,,---,0.00,VWS V14.01,2013-05-24 05:48:00,
2013-05-24 01:50:00,50.4,45.4,29.12,NNW,346,3.1,4.5,83,0.00,,---,0.00,VWS V14.01,2013-05-24 05:50:00,
2013-05-24 01:55:00,50.4,45.1,29.12,NNW,335,0.0,4.5,82,0.00,,---,0.00,VWS V14.01,2013-05-24 05:55:00,
2013-05-24 02:00:00,50.2,44.9,29.12,NNW,327,4.9,5.8,82,0.00,,---,0.00,VWS V14.01,2013-05-24 06:00:00,
2013-05-24 02:02:00,47.7,30.4,29.26,NW,324,0.0,0.0,51,0.00,,---,0.00,VWS V14.01,2013-05-24 06:02:00,
2013-05-24 02:05:00,49.8,44.2,29.12,NNW,327,0.0,5.4,81,0.00,,---,0.00,VWS V14.01,2013-05-24 06:05:00,
2013-05-24 02:07:00,47.5,30.8,29.26,NW,324,0.0,0.0,52,0.00,,---,0.00,VWS V14.01,2013-05-24 06:07:00,
2013-05-24 02:10:00,49.5,44.2,29.12,NNW,336,4.5,9.6,82,0.00,,---,0.00,VWS V14.01,2013-05-24 06:10:00,
2013-05-24 02:15:00,49.3,44.0,29.12,NNW,345,6.3,6.3,82,0.00,,---,0.00,VWS V14.01,2013-05-24 06:15:00,
2013-05-24 02:20:00,48.9,43.7,29.12,NNW,328,3.1,4.0,82,0.00,,---,0.00,VWS V14.01,2013-05-24 06:20:00,
2013-05-24 02:25:00,48.9,44.0,29.12,North,2,3.1,3.1,83,0.00,,---,0.00,VWS V14.01,2013-05-24 06:25:00,
2013-05-24 02:30:00,48.7,43.8,29.12,North,9,0.0,3.6,83,0.00,,---,0.00,VWS V14.01,2013-05-24 06:30:00,
2013-05-24 02:35:00,48.7,44.1,29.12,NNW,335,0.0,0.0,84,0.00,,---,0.00,VWS V14.01,2013-05-24 06:35:00,
2013-05-24 02:40:00,48.9,44.3,29.12,NNW,341,0.0,0.0,84,0.00,,---,0.00,VWS V14.01,2013-05-24 06:40:00,
2013-05-24 02:45:00,48.9,44.3,29.12,North,351,0.0,2.7,84,0.00,,---,0.00,VWS V14.01,2013-05-24 06:45:00,
2013-05-24 02:50:00,48.7,44.1,29.12,NNW,342,6.7,6.7,84,0.00,,---,0.00,VWS V14.01,2013-05-24 06:50:00,
2013-05-24 02:55:00,48.7,44.1,29.12,WNW,297,0.0,7.4,84,0.00,,---,0.00,VWS V14.01,2013-05-24 06:55:00,
2013-05-24 03:00:00,48.7,44.1,29.12,North,351,0.0,3.1,84,0.00,,---,0.00,VWS V14.01,2013-05-24 07:00:00,
2013-05-24 03:05:00,48.7,44.1,29.12,NNW,337,0.0,0.0,84,0.00,,---,0.00,VWS V14.01,2013-05-24 07:05:00,
2013-05-24 03:10:00,48.9,44.3,29.12,NNW,345,0.0,0.0,84,0.00,,---,0.00,VWS V14.01,2013-05-24 07:10:00,
2013-05-24 03:15:00,48.9,44.3,29.12,NNW,327,0.0,4.5,84,0.00,,---,0.00,VWS V14.01,2013-05-24 07:15:00,
2013-05-24 03:20:00,48.9,44.3,29.12,NNW,335,0.0,2.7,84,0.00,,---,0.00,VWS V14.01,2013-05-24 07:20:00,
2013-05-24 03:25:00,48.9,44.3,29.12,NNW,341,0.0,0.0,84,0.00,,---,0.00,VWS V14.01,2013-05-24 07:25:00,
2013-05-24 03:30:00,48.9,44.3,29.15,NNW,343,0.0,0.0,84,0.00,,---,0.00,VWS V14.01,2013-05-24 07:30:00,
2013-05-24 03:35:00,48.9,44.0,29.15,North,351,0.0,0.0,83,0.00,,---,0.00,VWS V14.01,2013-05-24 07:35:00,
2013-05-24 03:40:00,48.9,43.7,29.15,North,351,0.0,0.0,82,0.00,,---,0.00,VWS V14.01,2013-05-24 07:40:00,
2013-05-24 03:45:00,48.7,42.9,29.15,North,351,0.0,0.0,80,0.00,,---,0.00,VWS V14.01,2013-05-24 07:45:00,
2013-05-24 03:50:00,48.7,42.5,29.15,North,351,0.0,0.0,79,0.00,,---,0.00,VWS V14.01,2013-05-24 07:50:00,
2013-05-24 03:55:00,48.7,42.2,29.15,NW,308,0.0,3.6,78,0.00,,---,0.00,VWS V14.01,2013-05-24 07:55:00,
2013-05-24 04:00:00,48.7,41.9,29.15,NW,312,0.0,0.0,77,0.00,,---,0.00,VWS V14.01,2013-05-24 08:00:00,
2013-05-24 04:05:00,48.7,41.5,29.15,NW,312,0.0,0.0,76,0.00,,---,0.00,VWS V14.01,2013-05-24 08:05:00,
2013-05-24 04:10:00,48.2,41.0,29.15,NE,34,3.1,3.1,76,0.00,,---,0.00,VWS V14.01,2013-05-24 08:10:00,
2013-05-24 04:15:00,47.8,40.3,29.15,NE,34,0.0,0.0,75,0.00,,---,0.00,VWS V14.01,2013-05-24 08:15:00,
2013-05-24 04:20:00,47.7,40.1,29.15,NE,34,0.0,0.0,75,0.00,,---,0.00,VWS V14.01,2013-05-24 08:20:00,
2013-05-24 04:25:00,47.5,40.0,29.15,NE,34,0.0,0.0,75,0.00,,---,0.00,VWS V14.01,2013-05-24 08:25:00,
2013-05-24 04:30:00,47.3,40.1,29.15,NE,34,0.0,0.0,76,0.00,,---,0.00,VWS V14.01,2013-05-24 08:30:00,
2013-05-24 04:35:00,47.1,40.0,29.15,NE,34,0.0,0.0,76,0.00,,---,0.00,VWS V14.01,2013-05-24 08:35:00,
2013-05-24 04:40:00,46.9,40.1,29.15,North,4,0.0,0.0,77,0.00,,---,0.00,VWS V14.01,2013-05-24 08:40:00,
2013-05-24 04:45:00,46.9,40.5,29.18,North,4,0.0,0.0,78,0.00,,---,0.00,VWS V14.01,2013-05-24 08:45:00,
2013-05-24 04:50:00,46.9,40.5,29.18,North,4,0.0,0.0,78,0.00,,---,0.00,VWS V14.01,2013-05-24 08:50:00,
2013-05-24 04:55:00,46.9,40.1,29.18,North,4,0.0,0.0,77,0.00,,---,0.00,VWS V14.01,2013-05-24 08:55:00,
2013-05-24 05:00:00,46.6,39.8,29.15,North,4,2.7,2.7,77,0.00,,---,0.00,VWS V14.01,2013-05-24 09:00:00,
2013-05-24 05:05:00,46.4,39.6,29.15,North,4,0.0,0.0,77,0.00,,---,0.00,VWS V14.01,2013-05-24 09:05:00,
2013-05-24 05:10:00,46.0,39.6,29.15,North,3,0.0,0.0,78,0.00,,---,0.00,VWS V14.01,2013-05-24 09:10:00,
2013-05-24 05:15:00,45.9,39.4,29.18,North,3,0.0,0.0,78,0.00,,---,0.00,VWS V14.01,2013-05-24 09:15:00,
2013-05-24 05:20:00,45.5,39.0,29.18,North,3,0.0,0.0,78,0.00,,---,0.00,VWS V14.01,2013-05-24 09:20:00,
2013-05-24 05:25:00,45.3,39.2,29.18,North,3,0.0,0.0,79,0.00,,---,0.00,VWS V14.01,2013-05-24 09:25:00,
2013-05-24 05:30:00,45.1,39.3,29.18,North,3,0.0,0.0,80,0.00,,---,0.00,VWS V14.01,2013-05-24 09:30:00,
2013-05-24 05:35:00,45.1,39.7,29.18,North,3,0.0,0.0,81,0.00,,---,0.00,VWS V14.01,2013-05-24 09:35:00,
2013-05-24 05:40:00,44.8,39.3,29.18,North,3,0.0,0.0,81,0.00,,---,0.00,VWS V14.01,2013-05-24 09:40:00,
2013-05-24 05:45:00,44.4,39.0,29.18,North,3,0.0,0.0,81,0.00,,---,0.00,VWS V14.01,2013-05-24 09:45:00,
2013-05-24 05:50:00,44.2,39.1,29.18,North,3,0.0,0.0,82,0.00,,---,0.00,VWS V14.01,2013-05-24 09:50:00,
2013-05-24 05:55:00,44.1,38.9,29.18,North,3,0.0,0.0,82,0.00,,---,0.00,VWS V14.01,2013-05-24 09:55:00,
2013-05-24 06:00:00,43.9,39.1,29.18,North,3,0.0,0.0,83,0.00,,---,0.00,VWS V14.01,2013-05-24 10:00:00,
2013-05-24 06:05:00,43.9,39.1,29.18,North,3,0.0,0.0,83,0.00,,---,0.00,VWS V14.01,2013-05-24 10:05:00,
2013-05-24 06:10:00,43.9,39.7,29.18,North,3,0.0,0.0,85,0.00,,---,0.00,VWS V14.01,2013-05-24 10:10:00,
2013-05-24 06:15:00,43.7,39.8,29.18,North,3,0.0,0.0,86,0.00,,---,0.00,VWS V14.01,2013-05-24 10:15:00,
2013-05-24 06:20:00,43.5,39.9,29.18,North,3,0.0,0.0,87,0.00,,---,0.00,VWS V14.01,2013-05-24 10:20:00,
2013-05-24 06:25:00,43.7,40.1,29.18,North,3,0.0,0.0,87,0.00,,---,0.00,VWS V14.01,2013-05-24 10:25:00,
2013-05-24 06:30:00,44.1,40.7,29.18,North,3,0.0,0.0,88,0.00,,---,0.00,VWS V14.01,2013-05-24 10:30:00,
2013-05-24 06:35:00,44.1,41.3,29.18,North,3,0.0,0.0,90,0.00,,---,0.00,VWS V14.01,2013-05-24 10:35:00,
2013-05-24 06:40:00,44.2,41.8,29.18,North,356,0.0,4.0,91,0.00,,---,0.00,VWS V14.01,2013-05-24 10:40:00,
2013-05-24 06:45:00,44.4,42.5,29.18,North,356,0.0,2.7,93,0.00,,---,0.00,VWS V14.01,2013-05-24 10:45:00,
2013-05-24 06:50:00,44.6,43.0,29.18,North,356,0.0,0.0,94,0.00,,---,0.00,VWS V14.01,2013-05-24 10:50:00,
2013-05-24 06:55:00,44.8,43.2,29.18,North,356,0.0,0.0,94,0.00,,---,0.00,VWS V14.01,2013-05-24 10:55:00,
2013-05-24 07:00:00,44.8,43.4,29.21,NNW,331,0.0,0.0,95,0.00,,---,0.00,VWS V14.01,2013-05-24 11:00:00,
2013-05-24 07:05:00,44.8,43.4,29.21,NNW,331,0.0,0.0,95,0.00,,---,0.00,VWS V14.01,2013-05-24 11:05:00,
2013-05-24 07:10:00,45.0,43.9,29.21,NNW,331,0.0,0.0,96,0.00,,---,0.00,VWS V14.01,2013-05-24 11:10:00,
2013-05-24 07:15:00,45.0,43.9,29.21,North,351,0.0,0.0,96,0.00,,---,0.00,VWS V14.01,2013-05-24 11:15:00,
2013-05-24 07:20:00,45.0,43.9,29.21,NNW,342,3.1,3.6,96,0.00,,---,0.00,VWS V14.01,2013-05-24 11:20:00,
2013-05-24 07:25:00,45.0,43.9,29.21,North,351,0.0,4.0,96,0.00,,---,0.00,VWS V14.01,2013-05-24 11:25:00,
2013-05-24 07:30:00,45.1,44.1,29.21,NNW,347,0.0,2.7,96,0.00,,---,0.00,VWS V14.01,2013-05-24 11:30:00,
2013-05-24 07:35:00,45.1,43.8,29.21,NNW,336,2.7,6.7,95,0.00,,---,0.00,VWS V14.01,2013-05-24 11:35:00,
2013-05-24 07:40:00,45.1,43.8,29.21,North,351,0.0,0.0,95,0.00,,---,0.00,VWS V14.01,2013-05-24 11:40:00,
2013-05-24 07:45:00,45.1,43.5,29.21,NNW,339,0.0,4.0,94,0.00,,---,0.00,VWS V14.01,2013-05-24 11:45:00,
2013-05-24 07:50:00,45.3,43.1,29.21,NNW,340,0.0,0.0,92,0.00,,---,0.00,VWS V14.01,2013-05-24 11:50:00,
2013-05-24 07:55:00,45.9,42.8,29.21,NNW,340,0.0,2.7,89,0.00,,---,0.00,VWS V14.01,2013-05-24 11:55:00,
2013-05-24 08:00:00,49.5,45.5,29.21,NNW,341,0.0,0.0,86,0.00,,---,0.00,VWS V14.01,2013-05-24 12:00:00,
2013-05-24 08:05:00,51.6,44.0,29.21,NW,317,2.7,4.0,75,0.00,,---,0.00,VWS V14.01,2013-05-24 12:05:00,
2013-05-24 08:10:00,55.9,43.1,29.21,NNE,22,0.0,4.0,62,0.00,,---,0.00,VWS V14.01,2013-05-24 12:10:00,
2013-05-24 08:16:00,61.0,40.1,29.23,WNW,299,0.0,0.0,46,0.00,,---,0.00,VWS V14.01,2013-05-24 12:16:00,
2013-05-24 08:21:00,61.3,34.2,29.23,NNE,27,0.0,3.6,36,0.00,,---,0.00,VWS V14.01,2013-05-24 12:21:00,
2013-05-24 08:27:00,66.0,36.1,29.23,NW,326,2.7,2.7,33,0.00,,---,0.00,VWS V14.01,2013-05-24 12:27:00,
2013-05-24 08:32:00,57.4,30.7,29.23,North,351,3.1,5.4,36,0.00,,---,0.00,VWS V14.01,2013-05-24 12:32:00,
2013-05-24 08:38:00,60.8,34.4,29.23,North,6,4.5,4.5,37,0.00,,---,0.00,VWS V14.01,2013-05-24 12:38:00,
2013-05-24 08:43:00,55.0,30.5,29.23,NNW,344,2.7,6.9,39,0.00,,---,0.00,VWS V14.01,2013-05-24 12:43:00,
2013-05-24 08:49:00,54.1,33.3,29.23,North,9,3.6,3.6,45,0.00,,---,0.00,VWS V14.01,2013-05-24 12:49:00,
2013-05-24 08:54:00,53.2,32.5,29.23,North,356,2.7,4.0,45,0.00,,---,0.00,VWS V14.01,2013-05-24 12:54:00,
2013-05-24 08:59:00,52.3,32.7,29.23,West,277,0.0,2.7,47,0.00,,---,0.00,VWS V14.01,2013-05-24 12:59:00,
2013-05-24 09:04:00,52.2,33.1,29.23,NNE,18,0.0,0.0,48,0.00,,---,0.00,VWS V14.01,2013-05-24 13:04:00,
2013-05-24 09:09:00,50.5,33.1,29.23,NNW,334,0.0,0.0,51,0.00,,---,0.00,VWS V14.01,2013-05-24 13:09:00,
2013-05-24 09:14:00,50.4,33.9,29.26,NW,320,0.0,4.5,53,0.00,,---,0.00,VWS V14.01,2013-05-24 13:14:00,
2013-05-24 09:19:00,50.2,33.2,29.26,NNE,19,4.0,4.0,52,0.00,,---,0.00,VWS V14.01,2013-05-24 13:19:00,
2013-05-24 09:24:00,50.5,33.1,29.26,NNW,335,0.0,7.8,51,0.00,,---,0.00,VWS V14.01,2013-05-24 13:24:00,
2013-05-24 09:29:00,51.6,35.5,29.26,NE,53,0.0,0.0,54,0.00,,---,0.00,VWS V14.01,2013-05-24 13:29:00,
2013-05-24 09:34:00,52.3,33.2,29.26,NW,318,0.0,0.0,48,0.00,,---,0.00,VWS V14.01,2013-05-24 13:34:00,
2013-05-24 09:39:00,53.1,32.8,29.26,NW,316,6.7,6.9,46,0.00,,---,0.00,VWS V14.01,2013-05-24 13:39:00,
2013-05-24 09:44:00,53.1,32.8,29.26,NNE,20,0.0,0.0,46,0.00,,---,0.00,VWS V14.01,2013-05-24 13:44:00,
2013-05-24 09:45:00,58.6,27.3,29.32,SE,126,0.0,2.7,30,0.00,,---,0.00,VWS V14.01,2013-05-24 13:45:00,
2013-05-24 09:46:00,58.8,28.3,29.32,SE,126,0.0,0.0,31,0.00,,---,0.00,VWS V14.01,2013-05-24 13:46:00,
2013-05-24 09:47:00,59.0,29.2,29.32,SE,126,0.0,0.0,32,0.00,,---,0.00,VWS V14.01,2013-05-24 13:47:00,
2013-05-24 09:48:00,59.2,29.4,29.32,WSW,250,0.0,0.0,32,0.00,,---,0.00,VWS V14.01,2013-05-24 13:48:00,
2013-05-24 09:49:00,54.1,33.3,29.26,North,2,2.7,3.6,45,0.00,,---,0.00,VWS V14.01,2013-05-24 13:49:00,
2013-05-24 09:50:00,59.5,29.7,29.32,SE,127,0.0,4.5,32,0.00,,---,0.00,VWS V14.01,2013-05-24 13:50:00,
2013-05-24 09:51:00,59.7,29.8,29.32,SE,129,0.0,3.6,32,0.00,,---,0.00,VWS V14.01,2013-05-24 13:51:00,
2013-05-24 09:52:00,60.3,28.7,29.32,SE,129,0.0,0.0,30,0.00,,---,0.00,VWS V14.01,2013-05-24 13:52:00,
2013-05-24 09:54:00,55.4,33.3,29.26,East,83,0.0,0.0,43,0.00,,---,0.00,VWS V14.01,2013-05-24 13:54:00,
2013-05-24 09:56:00,60.8,28.4,29.32,South,174,0.0,0.0,29,0.00,,---,0.00,VWS V14.01,2013-05-24 13:56:00,
2013-05-24 09:58:00,61.0,28.5,29.32,SSW,207,0.0,0.0,29,0.00,,---,0.00,VWS V14.01,2013-05-24 13:58:00,
2013-05-24 09:59:00,55.0,30.5,29.26,NNW,329,5.8,6.7,39,0.00,,---,0.00,VWS V14.01,2013-05-24 13:59:00,
2013-05-24 10:00:00,61.0,27.7,29.32,SSW,206,0.0,2.7,28,0.00,,---,0.00,VWS V14.01,2013-05-24 14:00:00,
2013-05-24 10:04:00,54.7,29.6,29.26,North,356,3.1,5.8,38,0.00,,---,0.00,VWS V14.01,2013-05-24 14:04:00,
2013-05-24 10:06:00,61.5,26.3,29.32,SSE,167,0.0,4.0,26,0.00,,---,0.00,VWS V14.01,2013-05-24 14:06:00,
2013-05-24 10:09:00,54.5,28.8,29.26,ENE,69,0.0,3.1,37,0.00,,---,0.00,VWS V14.01,2013-05-24 14:09:00,
2013-05-24 10:10:00,61.9,26.6,29.32,WSW,237,0.0,6.7,26,0.00,,---,0.00,VWS V14.01,2013-05-24 14:10:00,
2013-05-24 10:11:00,61.9,25.7,29.32,South,176,2.7,5.8,25,0.00,,---,0.00,VWS V14.01,2013-05-24 14:11:00,
2013-05-24 10:12:00,62.1,25.9,29.32,SE,145,0.0,4.9,25,0.00,,---,0.00,VWS V14.01,2013-05-24 14:12:00,
2013-05-24 10:13:00,62.1,25.9,29.32,ESE,121,4.5,4.5,25,0.00,,---,0.00,VWS V14.01,2013-05-24 14:13:00,
2013-05-24 10:15:00,55.4,28.9,29.26,North,6,0.0,4.5,36,0.00,,---,0.00,VWS V14.01,2013-05-24 14:15:00,
2013-05-24 10:16:00,62.2,26.0,29.32,SW,221,3.1,5.8,25,0.00,,---,0.00,VWS V14.01,2013-05-24 14:16:00,
2013-05-24 10:17:00,62.2,26.0,29.32,SW,221,0.0,3.1,25,0.00,,---,0.00,VWS V14.01,2013-05-24 14:17:00,
2013-05-24 10:19:00,62.2,25.0,29.32,SE,146,3.1,4.0,24,0.00,,---,0.00,VWS V14.01,2013-05-24 14:19:00,
2013-05-24 10:20:00,57.0,31.0,29.26,NNE,15,2.7,3.6,37,0.00,,---,0.00,VWS V14.01,2013-05-24 14:20:00,
2013-05-24 10:21:00,61.9,24.7,29.32,SW,225,0.0,4.9,24,0.00,,---,0.00,VWS V14.01,2013-05-24 14:21:00,
2013-05-24 10:22:00,62.1,24.9,29.32,SSW,210,2.7,3.1,24,0.00,,---,0.00,VWS V14.01,2013-05-24 14:22:00,
2013-05-24 10:24:00,62.1,25.9,29.32,East,97,0.0,0.0,25,0.00,,---,0.00,VWS V14.01,2013-05-24 14:24:00,
2013-05-24 10:25:00,57.0,28.2,29.26,ENE,64,0.0,6.3,33,0.00,,---,0.00,VWS V14.01,2013-05-24 14:25:00,
2013-05-24 10:27:00,62.2,26.0,29.32,SE,130,3.6,4.0,25,0.00,,---,0.00,VWS V14.01,2013-05-24 14:27:00,
2013-05-24 10:28:00,62.4,26.2,29.32,SE,130,0.0,3.6,25,0.00,,---,0.00,VWS V14.01,2013-05-24 14:28:00,
2013-05-24 10:29:00,62.4,26.2,29.32,SE,130,0.0,0.0,25,0.00,,---,0.00,VWS V14.01,2013-05-24 14:29:00,
2013-05-24 10:30:00,56.7,24.8,29.26,NE,54,2.7,7.4,29,0.00,,---,0.00,VWS V14.01,2013-05-24 14:30:00,
2013-05-24 10:31:00,62.8,26.5,29.32,SE,130,0.0,3.6,25,0.00,,---,0.00,VWS V14.01,2013-05-24 14:31:00,
2013-05-24 10:34:00,63.0,25.6,29.32,SE,132,0.0,2.7,24,0.00,,---,0.00,VWS V14.01,2013-05-24 14:34:00,
2013-05-24 10:35:00,57.9,28.3,29.26,South,189,0.0,3.6,32,0.00,,---,0.00,VWS V14.01,2013-05-24 14:35:00,
2013-05-24 10:36:00,63.3,25.9,29.32,SE,132,0.0,0.0,24,0.00,,---,0.00,VWS V14.01,2013-05-24 14:36:00,
2013-05-24 10:38:00,63.3,25.9,29.32,WSW,240,3.1,4.5,24,0.00,,---,0.00,VWS V14.01,2013-05-24 14:38:00,
2013-05-24 10:39:00,63.3,25.9,29.32,WSW,246,0.0,3.1,24,0.00,,---,0.00,VWS V14.01,2013-05-24 14:39:00,
2013-05-24 10:40:00,57.7,26.5,29.26,North,356,5.4,6.7,30,0.00,,---,0.00,VWS V14.01,2013-05-24 14:40:00,
2013-05-24 10:41:00,63.7,25.2,29.32,SE,137,0.0,4.5,23,0.00,,---,0.00,VWS V14.01,2013-05-24 14:41:00,
2013-05-24 10:42:00,63.9,25.4,29.32,SE,139,3.1,4.0,23,0.00,,---,0.00,VWS V14.01,2013-05-24 14:42:00,
2013-05-24 10:45:00,57.4,24.6,29.26,NNE,17,5.4,9.2,28,0.00,,---,0.00,VWS V14.01,2013-05-24 14:45:00,
2013-05-24 10:47:00,64.8,26.1,29.32,South,170,3.1,3.6,23,0.00,,---,0.00,VWS V14.01,2013-05-24 14:47:00,
2013-05-24 10:48:00,64.8,26.1,29.32,South,177,4.0,4.9,23,0.00,,---,0.00,VWS V14.01,2013-05-24 14:48:00,
2013-05-24 10:50:00,56.5,24.6,29.26,NNE,30,0.0,8.3,29,0.00,,---,0.00,VWS V14.01,2013-05-24 14:50:00,
2013-05-24 10:53:00,64.0,25.5,29.32,East,88,2.7,5.4,23,0.00,,---,0.00,VWS V14.01,2013-05-24 14:53:00,
2013-05-24 10:55:00,56.3,24.5,29.26,NNE,28,5.4,6.7,29,0.00,,---,0.00,VWS V14.01,2013-05-24 14:55:00,
2013-05-24 10:56:00,63.5,25.1,29.32,ESE,119,6.7,6.7,23,0.00,,---,0.00,VWS V14.01,2013-05-24 14:56:00,
2013-05-24 11:00:00,57.4,28.5,29.26,NW,316,4.5,4.5,33,0.00,,---,0.00,VWS V14.01,2013-05-24 15:00:00,
2013-05-24 11:01:00,63.5,25.1,29.29,SW,221,4.5,5.4,23,0.00,,---,0.00,VWS V14.01,2013-05-24 15:01:00,
2013-05-24 11:05:00,58.1,23.4,29.26,North,5,4.5,6.9,26,0.00,,---,0.00,VWS V14.01,2013-05-24 15:05:00,
2013-05-24 11:07:00,64.2,22.3,29.29,SE,135,4.0,4.5,20,0.00,,---,0.00,VWS V14.01,2013-05-24 15:07:00,
2013-05-24 11:10:00,57.2,25.2,29.26,NNW,332,4.5,5.8,29,0.00,,---,0.00,VWS V14.01,2013-05-24 15:10:00,
2013-05-24 11:11:00,64.0,22.2,29.29,SSW,201,0.0,3.1,20,0.00,,---,0.00,VWS V14.01,2013-05-24 15:11:00,
2013-05-24 11:13:00,64.4,22.5,29.29,SE,129,4.5,4.5,20,0.00,,---,0.00,VWS V14.01,2013-05-24 15:13:00,
2013-05-24 11:15:00,58.3,23.6,29.26,North,0,0.0,4.0,26,0.00,,---,0.00,VWS V14.01,2013-05-24 15:15:00,
2013-05-24 11:16:00,64.4,22.5,29.29,SE,125,6.7,6.9,20,0.00,,---,0.00,VWS V14.01,2013-05-24 15:16:00,
2013-05-24 11:17:00,64.0,22.2,29.29,SE,127,5.4,7.4,20,0.00,,---,0.00,VWS V14.01,2013-05-24 15:17:00,
2013-05-24 11:19:00,63.7,21.9,29.29,SE,125,3.6,6.7,20,0.00,,---,0.00,VWS V14.01,2013-05-24 15:19:00,
2013-05-24 11:20:00,59.2,25.2,29.26,ENE,58,4.0,6.7,27,0.00,,---,0.00,VWS V14.01,2013-05-24 15:20:00,
2013-05-24 11:21:00,63.7,21.9,29.29,SSE,152,0.0,3.1,20,0.00,,---,0.00,VWS V14.01,2013-05-24 15:21:00,
2013-05-24 11:23:00,63.9,22.0,29.29,WSW,242,0.0,4.9,20,0.00,,---,0.00,VWS V14.01,2013-05-24 15:23:00,
2013-05-24 11:24:00,64.0,22.2,29.29,SW,216,0.0,5.8,20,0.00,,---,0.00,VWS V14.01,2013-05-24 15:24:00,
2013-05-24 11:25:00,60.4,25.4,29.26,NW,305,2.7,3.6,26,0.00,,---,0.00,VWS V14.01,2013-05-24 15:25:00,
2013-05-24 11:26:00,64.2,22.3,29.29,SE,144,4.5,4.9,20,0.00,,---,0.00,VWS V14.01,2013-05-24 15:26:00,
2013-05-24 11:28:00,64.4,22.5,29.29,East,92,3.1,6.3,20,0.00,,---,0.00,VWS V14.01,2013-05-24 15:28:00,
2013-05-24 11:30:00,58.1,21.5,29.26,North,351,7.8,10.5,24,0.00,,---,0.00,VWS V14.01,2013-05-24 15:30:00,
2013-05-24 11:31:00,64.0,19.7,29.29,ESE,103,3.1,6.9,18,0.00,,---,0.00,VWS V14.01,2013-05-24 15:31:00,
2013-05-24 11:33:00,64.2,19.9,29.29,SW,218,0.0,2.7,18,0.00,,---,0.00,VWS V14.01,2013-05-24 15:33:00,
2013-05-24 11:35:00,58.5,22.8,29.26,North,356,0.0,6.7,25,0.00,,---,0.00,VWS V14.01,2013-05-24 15:35:00,
2013-05-24 11:37:00,65.3,23.2,29.29,SSE,151,0.0,0.0,20,0.00,,---,0.00,VWS V14.01,2013-05-24 15:37:00,
2013-05-24 11:39:00,65.7,23.5,29.29,SSE,155,0.0,0.0,20,0.00,,---,0.00,VWS V14.01,2013-05-24 15:39:00,
2013-05-24 11:40:00,59.4,23.6,29.26,North,2,0.0,4.0,25,0.00,,---,0.00,VWS V14.01,2013-05-24 15:40:00,
2013-05-24 11:44:00,65.7,19.7,29.29,ESE,104,4.5,5.4,17,0.00,,---,0.00,VWS V14.01,2013-05-24 15:44:00,
2013-05-24 11:45:00,62.4,25.2,29.26,East,81,4.0,4.0,24,0.00,,---,0.00,VWS V14.01,2013-05-24 15:45:00,
2013-05-24 11:46:00,65.5,19.5,29.29,ESE,117,5.4,6.7,17,0.00,,---,0.00,VWS V14.01,2013-05-24 15:46:00,
2013-05-24 11:50:00,61.2,20.9,29.26,NW,311,6.9,6.9,21,0.00,,---,0.00,VWS V14.01,2013-05-24 15:50:00,
2013-05-24 11:55:00,59.7,20.8,29.26,NE,53,0.0,5.4,22,0.00,,---,0.00,VWS V14.01,2013-05-24 15:55:00,
2013-05-24 12:00:00,61.3,24.3,29.26,NW,320,2.7,4.0,24,0.00,,---,0.00,VWS V14.01,2013-05-24 16:00:00,
2013-05-24 12:05:00,61.9,21.5,29.26,NNE,33,4.5,8.3,21,0.00,,---,0.00,VWS V14.01,2013-05-24 16:05:00,
2013-05-24 12:10:00,63.3,22.8,29.26,NNE,27,0.0,4.5,21,0.00,,---,0.00,VWS V14.01,2013-05-24 16:10:00,
2013-05-24 12:15:00,63.1,19.0,29.29,NNW,335,4.9,7.8,18,0.00,,---,0.00,VWS V14.01,2013-05-24 16:15:00,
2013-05-24 12:20:00,64.2,22.3,29.29,NE,42,3.1,4.5,20,0.00,,---,0.00,VWS V14.01,2013-05-24 16:20:00,
2013-05-24 12:25:00,62.4,18.4,29.29,North,9,3.6,4.9,18,0.00,,---,0.00,VWS V14.01,2013-05-24 16:25:00,
2013-05-24 12:30:00,63.5,22.9,29.29,North,351,4.0,6.7,21,0.00,,---,0.00,VWS V14.01,2013-05-24 16:30:00,
2013-05-24 12:35:00,63.7,25.2,29.29,NNE,24,0.0,2.7,23,0.00,,---,0.00,VWS V14.01,2013-05-24 16:35:00,
2013-05-24 12:41:00,63.7,21.9,29.29,NNE,32,2.7,7.4,20,0.00,,---,0.00,VWS V14.01,2013-05-24 16:41:00,
2013-05-24 12:46:00,64.4,22.5,29.29,North,356,4.0,8.7,20,0.00,,---,0.00,VWS V14.01,2013-05-24 16:46:00,
2013-05-24 12:51:00,63.3,19.1,29.29,NNE,33,4.0,9.6,18,0.00,,---,0.00,VWS V14.01,2013-05-24 16:51:00,
2013-05-24 12:56:00,64.4,22.5,29.29,WNW,290,0.0,3.1,20,0.00,,---,0.00,VWS V14.01,2013-05-24 16:56:00,
2013-05-24 13:01:00,63.5,19.3,29.26,WSW,251,3.1,5.4,18,0.00,,---,0.00,VWS V14.01,2013-05-24 17:01:00,
2013-05-24 13:06:00,62.6,22.1,29.26,WNW,302,4.9,4.9,21,0.00,,---,0.00,VWS V14.01,2013-05-24 17:06:00,
2013-05-24 13:12:00,64.6,20.1,29.26,NNE,26,3.6,7.8,18,0.00,,---,0.00,VWS V14.01,2013-05-24 17:12:00,
2013-05-24 13:17:00,65.1,20.6,29.26,West,273,6.7,6.7,18,0.00,,---,0.00,VWS V14.01,2013-05-24 17:17:00,
2013-05-24 13:22:00,64.9,20.4,29.26,WNW,287,3.6,4.9,18,0.00,,---,0.00,VWS V14.01,2013-05-24 17:22:00,
2013-05-24 13:27:00,65.7,19.7,29.26,NNE,25,4.0,6.9,17,0.00,,---,0.00,VWS V14.01,2013-05-24 17:27:00,
2013-05-24 13:32:00,66.9,20.7,29.26,NW,315,4.0,4.0,17,0.00,,---,0.00,VWS V14.01,2013-05-24 17:32:00,
2013-05-24 13:37:00,65.1,20.6,29.26,SSE,162,5.4,7.4,18,0.00,,---,0.00,VWS V14.01,2013-05-24 17:37:00,
2013-05-24 13:43:00,66.2,20.1,29.26,North,11,0.0,5.8,17,0.00,,---,0.00,VWS V14.01,2013-05-24 17:43:00,
2013-05-24 13:49:00,68.2,21.7,29.26,West,266,3.6,4.0,17,0.00,,---,0.00,VWS V14.01,2013-05-24 17:49:00,
2013-05-24 13:54:00,68.0,21.6,29.26,NNE,32,0.0,5.4,17,0.00,,---,0.00,VWS V14.01,2013-05-24 17:54:00,
2013-05-24 13:59:00,69.4,22.8,29.26,North,7,4.9,6.3,17,0.00,,---,0.00,VWS V14.01,2013-05-24 17:59:00,
2013-05-24 14:04:00,68.7,22.2,29.26,NNW,327,3.1,5.4,17,0.00,,---,0.00,VWS V14.01,2013-05-24 18:04:00,
2013-05-24 14:09:00,68.2,21.7,29.26,NNW,327,4.9,6.7,17,0.00,,---,0.00,VWS V14.01,2013-05-24 18:09:00,
2013-05-24 14:14:00,67.3,21.0,29.29,NNW,344,0.0,5.4,17,0.00,,---,0.00,VWS V14.01,2013-05-24 18:14:00,
2013-05-24 14:19:00,68.5,22.0,29.29,NNW,335,0.0,4.0,17,0.00,,---,0.00,VWS V14.01,2013-05-24 18:19:00,
2013-05-24 14:24:00,66.7,20.6,29.29,NW,307,0.0,6.9,17,0.00,,---,0.00,VWS V14.01,2013-05-24 18:24:00,
2013-05-24 14:29:00,68.4,21.9,29.26,NNE,14,2.7,3.1,17,0.00,,---,0.00,VWS V14.01,2013-05-24 18:29:00,
2013-05-24 14:34:00,69.1,22.5,29.26,NNW,347,5.4,6.3,17,0.00,,---,0.00,VWS V14.01,2013-05-24 18:34:00,
2013-05-24 14:39:00,69.3,22.6,29.26,NNE,22,0.0,4.5,17,0.00,,---,0.00,VWS V14.01,2013-05-24 18:39:00,
2013-05-24 14:44:00,69.1,17.9,29.26,NNW,330,6.3,7.8,14,0.00,,---,0.00,VWS V14.01,2013-05-24 18:44:00,
2013-05-24 14:49:00,69.4,22.8,29.26,WNW,287,4.0,4.0,17,0.00,,---,0.00,VWS V14.01,2013-05-24 18:49:00,
2013-05-24 14:54:00,68.2,21.7,29.26,North,351,4.0,6.3,17,0.00,,---,0.00,VWS V14.01,2013-05-24 18:54:00,
2013-05-24 14:59:00,67.6,18.4,29.26,NW,319,3.6,8.3,15,0.00,,---,0.00,VWS V14.01,2013-05-24 18:59:00,
2013-05-24 15:04:00,68.5,22.0,29.26,NW,308,4.9,6.9,17,0.00,,---,0.00,VWS V14.01,2013-05-24 19:04:00,
2013-05-24 15:09:00,68.0,21.6,29.26,NNE,15,3.1,6.3,17,0.00,,---,0.00,VWS V14.01,2013-05-24 19:09:00,
2013-05-24 15:14:00,69.1,22.5,29.26,NNE,12,0.0,5.8,17,0.00,,---,0.00,VWS V14.01,2013-05-24 19:14:00,
2013-05-24 15:19:00,70.2,23.4,29.26,ENE,60,2.7,5.4,17,0.00,,---,0.00,VWS V14.01,2013-05-24 19:19:00,
2013-05-24 15:24:00,70.2,23.4,29.26,NNW,341,4.0,5.8,17,0.00,,---,0.00,VWS V14.01,2013-05-24 19:24:00,
2013-05-24 15:29:00,68.5,19.1,29.26,NW,321,6.7,8.3,15,0.00,,---,0.00,VWS V14.01,2013-05-24 19:29:00,
2013-05-24 15:34:00,68.4,21.9,29.26,NNW,334,4.9,6.3,17,0.00,,---,0.00,VWS V14.01,2013-05-24 19:34:00,
2013-05-24 15:39:00,68.9,22.3,29.26,NNE,28,0.0,7.4,17,0.00,,---,0.00,VWS V14.01,2013-05-24 19:39:00,
2013-05-24 15:44:00,68.0,18.7,29.26,NNW,338,4.9,6.3,15,0.00,,---,0.00,VWS V14.01,2013-05-24 19:44:00,
2013-05-24 15:49:00,68.5,22.0,29.26,NE,34,3.1,4.5,17,0.00,,---,0.00,VWS V14.01,2013-05-24 19:49:00,
2013-05-24 15:58:00,70.9,22.5,29.26,East,81,4.0,4.5,16,0.00,,---,0.00,VWS V14.01,2013-05-24 19:58:00,
2013-05-24 16:22:00,69.8,18.5,29.26,SW,226,2.7,4.5,14,0.00,,---,0.00,VWS V14.01,2013-05-24 20:22:00,
2013-05-24 16:32:00,69.8,18.5,29.26,NNE,19,0.0,6.7,14,0.00,,---,0.00,VWS V14.01,2013-05-24 20:32:00,
2013-05-24 16:50:00,68.9,17.8,29.23,NNE,21,4.5,6.9,14,0.00,,---,0.00,VWS V14.01,2013-05-24 20:50:00,
2013-05-24 17:04:00,69.4,18.2,29.23,NNE,15,0.0,3.6,14,0.00,,---,0.00,VWS V14.01,2013-05-24 21:04:00,
2013-05-24 17:11:00,70.0,18.6,29.23,ENE,75,0.0,3.1,14,0.00,,---,0.00,VWS V14.01,2013-05-24 21:11:00,
2013-05-24 17:16:00,70.3,18.9,29.23,East,85,0.0,2.7,14,0.00,,---,0.00,VWS V14.01,2013-05-24 21:16:00,
2013-05-24 17:28:00,68.7,19.2,29.23,NNW,335,4.0,8.7,15,0.00,,---,0.00,VWS V14.01,2013-05-24 21:28:00,
2013-05-24 17:34:00,68.0,18.7,29.23,NNE,22,3.6,5.4,15,0.00,,---,0.00,VWS V14.01,2013-05-24 21:34:00,
2013-05-24 17:39:00,68.0,18.7,29.23,NNW,332,0.0,6.7,15,0.00,,---,0.00,VWS V14.01,2013-05-24 21:39:00,
2013-05-24 17:44:00,68.5,19.1,29.23,NW,316,5.8,6.3,15,0.00,,---,0.00,VWS V14.01,2013-05-24 21:44:00,
2013-05-24 17:50:00,68.5,19.1,29.23,East,89,0.0,3.1,15,0.00,,---,0.00,VWS V14.01,2013-05-24 21:50:00,
2013-05-24 17:55:00,68.7,19.2,29.23,ESE,115,0.0,3.1,15,0.00,,---,0.00,VWS V14.01,2013-05-24 21:55:00,
2013-05-24 18:00:00,68.0,18.7,29.23,NNW,327,5.8,7.4,15,0.00,,---,0.00,VWS V14.01,2013-05-24 22:00:00,
2013-05-24 18:05:00,68.0,18.7,29.23,North,351,2.7,3.6,15,0.00,,---,0.00,VWS V14.01,2013-05-24 22:05:00,
2013-05-24 18:10:00,68.7,19.2,29.23,NE,44,0.0,4.9,15,0.00,,---,0.00,VWS V14.01,2013-05-24 22:10:00,
2013-05-24 18:15:00,68.9,19.4,29.23,NNW,342,2.7,2.7,15,0.00,,---,0.00,VWS V14.01,2013-05-24 22:15:00,
2013-05-24 18:20:00,69.3,18.1,29.23,NW,325,0.0,3.6,14,0.00,,---,0.00,VWS V14.01,2013-05-24 22:20:00,
2013-05-24 18:25:00,69.4,18.2,29.23,NNW,344,5.4,6.3,14,0.00,,---,0.00,VWS V14.01,2013-05-24 22:25:00,
2013-05-24 18:30:00,70.0,18.6,29.23,ENE,78,0.0,3.6,14,0.00,,---,0.00,VWS V14.01,2013-05-24 22:30:00,
2013-05-24 18:35:00,71.6,23.1,29.23,NNE,32,4.0,4.0,16,0.00,,---,0.00,VWS V14.01,2013-05-24 22:35:00,
2013-05-24 18:40:00,73.8,24.8,29.23,North,5,0.0,3.6,16,0.00,,---,0.00,VWS V14.01,2013-05-24 22:40:00,
2013-05-24 18:45:00,77.0,25.9,29.23,North,2,3.1,3.1,15,0.00,,---,0.00,VWS V14.01,2013-05-24 22:45:00,
2013-05-24 18:50:00,76.3,25.3,29.23,NNE,21,3.6,3.6,15,0.00,,---,0.00,VWS V14.01,2013-05-24 22:50:00,
2013-05-24 18:55:00,76.6,25.6,29.23,NNW,331,0.0,4.5,15,0.00,,---,0.00,VWS V14.01,2013-05-24 22:55:00,
2013-05-24 19:00:00,75.6,24.7,29.21,NNW,332,0.0,0.0,15,0.00,,---,0.00,VWS V14.01,2013-05-24 23:00:00,
2013-05-24 19:05:00,78.1,26.7,29.21,North,351,0.0,2.7,15,0.00,,---,0.00,VWS V14.01,2013-05-24 23:05:00,
2013-05-24 19:10:00,76.1,25.1,29.21,ESE,117,0.0,0.0,15,0.00,,---,0.00,VWS V14.01,2013-05-24 23:10:00,
2013-05-24 19:15:00,78.8,27.3,29.21,NNW,331,3.6,4.5,15,0.00,,---,0.00,VWS V14.01,2013-05-24 23:15:00,
2013-05-24 19:20:00,77.9,26.6,29.21,NNE,16,0.0,4.5,15,0.00,,---,0.00,VWS V14.01,2013-05-24 23:20:00,
2013-05-24 19:25:00,77.5,26.3,29.21,NW,325,0.0,0.0,15,0.00,,---,0.00,VWS V14.01,2013-05-24 23:25:00,
2013-05-24 19:30:00,75.9,25.0,29.21,NW,320,0.0,0.0,15,0.00,,---,0.00,VWS V14.01,2013-05-24 23:30:00,
2013-05-24 19:35:00,76.8,25.7,29.21,NE,55,0.0,0.0,15,0.00,,---,0.00,VWS V14.01,2013-05-24 23:35:00,
2013-05-24 19:40:00,78.1,26.7,29.21,NE,55,0.0,0.0,15,0.00,,---,0.00,VWS V14.01,2013-05-24 23:40:00,
2013-05-24 19:45:00,73.9,20.0,29.21,NE,53,0.0,3.1,13,0.00,,---,0.00,VWS V14.01,2013-05-24 23:45:00,
2013-05-24 19:50:00,69.3,18.1,29.21,West,260,0.0,0.0,14,0.00,,---,0.00,VWS V14.01,2013-05-24 23:50:00,
2013-05-24 19:55:00,66.9,17.8,29.21,NW,324,0.0,4.0,15,0.00,,---,0.00,VWS V14.01,2013-05-24 23:55:00,
2013-05-24 20:00:00,64.6,15.9,29.21,NW,324,0.0,0.0,15,0.00,,---,0.00,VWS V14.01,2013-05-25 00:00:00,
2013-05-24 20:05:00,63.5,16.5,29.21,NW,324,0.0,0.0,16,0.00,,---,0.00,VWS V14.01,2013-05-25 00:05:00,
2013-05-24 20:10:00,62.6,15.8,29.21,NW,324,0.0,0.0,16,0.00,,---,0.00,VWS V14.01,2013-05-25 00:10:00,
2013-05-24 20:15:00,61.9,15.2,29.21,NW,324,0.0,0.0,16,0.00,,---,0.00,VWS V14.01,2013-05-25 00:15:00,
2013-05-24 20:20:00,61.7,15.1,29.21,NW,324,0.0,0.0,16,0.00,,---,0.00,VWS V14.01,2013-05-25 00:20:00,
2013-05-24 20:25:00,61.3,14.8,29.21,NW,324,0.0,0.0,16,0.00,,---,0.00,VWS V14.01,2013-05-25 00:25:00,
2013-05-24 20:30:00,61.0,14.5,29.21,NW,324,0.0,0.0,16,0.00,,---,0.00,VWS V14.01,2013-05-25 00:30:00,
2013-05-24 20:35:00,60.8,14.4,29.21,NW,324,0.0,0.0,16,0.00,,---,0.00,VWS V14.01,2013-05-25 00:35:00,
2013-05-24 20:40:00,60.4,14.1,29.21,NW,324,0.0,0.0,16,0.00,,---,0.00,VWS V14.01,2013-05-25 00:40:00,
2013-05-24 20:45:00,60.1,13.8,29.21,NW,324,0.0,0.0,16,0.00,,---,0.00,VWS V14.01,2013-05-25 00:45:00,
2013-05-24 20:50:00,59.5,14.7,29.21,NW,324,0.0,0.0,17,0.00,,---,0.00,VWS V14.01,2013-05-25 00:50:00,
2013-05-24 20:55:00,59.0,14.3,29.21,NW,324,0.0,0.0,17,0.00,,---,0.00,VWS V14.01,2013-05-25 00:55:00,
2013-05-24 21:00:00,58.6,14.0,29.21,NW,324,0.0,0.0,17,0.00,,---,0.00,VWS V14.01,2013-05-25 01:00:00,
2013-05-24 21:05:00,58.1,16.1,29.21,NW,324,0.0,0.0,19,0.00,,---,0.00,VWS V14.01,2013-05-25 01:05:00,
2013-05-24 21:10:00,57.7,15.8,29.21,NW,324,0.0,0.0,19,0.00,,---,0.00,VWS V14.01,2013-05-25 01:10:00,
2013-05-24 21:15:00,57.2,15.3,29.21,NW,324,0.0,0.0,19,0.00,,---,0.00,VWS V14.01,2013-05-25 01:15:00,
2013-05-24 21:20:00,56.7,14.9,29.21,NW,324,0.0,0.0,19,0.00,,---,0.00,VWS V14.01,2013-05-25 01:20:00,
2013-05-24 21:25:00,56.3,14.6,29.21,NW,324,0.0,0.0,19,0.00,,---,0.00,VWS V14.01,2013-05-25 01:25:00,
2013-05-24 21:30:00,56.1,20.8,29.21,NW,324,0.0,0.0,25,0.00,,---,0.00,VWS V14.01,2013-05-25 01:30:00,
2013-05-24 21:35:00,55.8,20.5,29.21,NW,324,0.0,0.0,25,0.00,,---,0.00,VWS V14.01,2013-05-25 01:35:00,
2013-05-24 21:40:00,55.4,22.0,29.21,NW,324,0.0,0.0,27,0.00,,---,0.00,VWS V14.01,2013-05-25 01:40:00,
2013-05-24 21:45:00,55.2,23.5,29.23,NW,324,0.0,0.0,29,0.00,,---,0.00,VWS V14.01,2013-05-25 01:45:00,
2013-05-24 21:50:00,54.7,23.1,29.23,NW,324,0.0,0.0,29,0.00,,---,0.00,VWS V14.01,2013-05-25 01:50:00,
2013-05-24 21:55:00,54.1,23.4,29.23,NW,324,0.0,0.0,30,0.00,,---,0.00,VWS V14.01,2013-05-25 01:55:00,
2013-05-24 22:00:00,53.8,23.1,29.23,NW,324,0.0,0.0,30,0.00,,---,0.00,VWS V14.01,2013-05-25 02:00:00,
2013-05-24 22:05:00,53.6,23.7,29.23,NW,324,0.0,0.0,31,0.00,,---,0.00,VWS V14.01,2013-05-25 02:05:00,
2013-05-24 22:10:00,53.2,23.4,29.23,NW,324,0.0,0.0,31,0.00,,---,0.00,VWS V14.01,2013-05-25 02:10:00,
2013-05-24 22:15:00,53.1,24.0,29.23,NW,324,0.0,0.0,32,0.00,,---,0.00,VWS V14.01,2013-05-25 02:15:00,
2013-05-24 22:20:00,52.7,24.4,29.23,NW,324,0.0,0.0,33,0.00,,---,0.00,VWS V14.01,2013-05-25 02:20:00,
2013-05-24 22:25:00,52.5,26.4,29.23,NW,324,0.0,0.0,36,0.00,,---,0.00,VWS V14.01,2013-05-25 02:25:00,
2013-05-24 22:30:00,52.3,26.2,29.23,NW,324,0.0,0.0,36,0.00,,---,0.00,VWS V14.01,2013-05-25 02:30:00,
2013-05-24 22:35:00,52.2,26.7,29.23,NW,324,0.0,0.0,37,0.00,,---,0.00,VWS V14.01,2013-05-25 02:35:00,
2013-05-24 22:40:00,51.8,26.4,29.23,NW,324,0.0,0.0,37,0.00,,---,0.00,VWS V14.01,2013-05-25 02:40:00,
2013-05-24 22:45:00,51.6,28.1,29.23,NW,324,0.0,0.0,40,0.00,,---,0.00,VWS V14.01,2013-05-25 02:45:00,
2013-05-24 22:50:00,51.4,28.5,29.23,NW,324,0.0,0.0,41,0.00,,---,0.00,VWS V14.01,2013-05-25 02:50:00,
2013-05-24 22:55:00,51.4,29.7,29.23,NW,324,0.0,0.0,43,0.00,,---,0.00,VWS V14.01,2013-05-25 02:55:00,
2013-05-24 23:00:00,51.1,30.0,29.23,NW,324,0.0,0.0,44,0.00,,---,0.00,VWS V14.01,2013-05-25 03:00:00,
2013-05-24 23:05:00,50.7,29.1,29.23,NW,324,0.0,0.0,43,0.00,,---,0.00,VWS V14.01,2013-05-25 03:05:00,
2013-05-24 23:10:00,50.5,28.9,29.23,NW,324,0.0,0.0,43,0.00,,---,0.00,VWS V14.01,2013-05-25 03:10:00,
2013-05-24 23:15:00,50.5,29.5,29.23,NW,324,0.0,0.0,44,0.00,,---,0.00,VWS V14.01,2013-05-25 03:15:00,
2013-05-24 23:20:00,50.5,31.6,29.23,NW,324,0.0,0.0,48,0.00,,---,0.00,VWS V14.01,2013-05-25 03:20:00,
2013-05-24 23:25:00,50.2,31.3,29.23,NW,324,0.0,0.0,48,0.00,,---,0.00,VWS V14.01,2013-05-25 03:25:00,
2013-05-24 23:30:00,49.8,30.4,29.26,NW,324,0.0,0.0,47,0.00,,---,0.00,VWS V14.01,2013-05-25 03:30:00,
2013-05-24 23:35:00,49.8,33.4,29.26,NW,324,0.0,0.0,53,0.00,,---,0.00,VWS V14.01,2013-05-25 03:35:00,
2013-05-24 23:40:00,49.3,32.4,29.26,NW,324,0.0,0.0,52,0.00,,---,0.00,VWS V14.01,2013-05-25 03:40:00,
2013-05-24 23:45:00,49.1,32.2,29.26,NW,324,0.0,0.0,52,0.00,,---,0.00,VWS V14.01,2013-05-25 03:45:00,
2013-05-24 23:50:00,48.7,32.4,29.26,NW,324,0.0,0.0,53,0.00,,---,0.00,VWS V14.01,2013-05-25 03:50:00,
2013-05-24 23:55:00,48.6,31.8,29.26,NW,324,0.0,0.0,52,0.00,,---,0.00,VWS V14.01,2013-05-25 03:55:00,
2013-05-24 23:59:00,55.0,29.9,29.21,WSW,246,0.0,0.0,38,0.00,,---,0.00,VWS V14.01,2013-05-25 03:59:00,